Location: TAAA CAC
(31.8680°N, 109.5150°W)
Time: 21:52:46
(UTC-07:00)

BlueWalker 3 - Pass Details

Date: 18 March 2026
Orbit: 449 x 457 km, 53.2° (Epoch: 20 April)

Event Time Altitude Azimuth Distance (km) Brightness Sun altitude
Exits shadow 05:53:53 - 302° (WNW) 2,017 4.5 -7.3°
Reaches altitude 10° 05:55:02 10° 296° (WNW) 1,590 3.9 -7.0°
Maximum altitude 05:58:13 31° 233° (SW) 821 2.6 -6.4°
Drops below altitude 10° 06:01:24 10° 169° (S) 1,577 4.6 -5.7°
Sets 06:03:39 0° 159° (SSE) 2,444 5.7 -5.2°
